Preview of NWS' New Version of Forecast
This preview is not operational and should not be used for support decisions.

Regional Weather Roundup (RWR)

Issued by National Weather Service (NWS)

                            
000
ASPQ40 PGUM 172110
RWRPQ 
WEATHER ROUNDUP FOR THE MARIANAS AND MICRONESIA
NATIONAL WEATHER SERVICE TIYAN GU
700 AM CHST THU APR 18 2019

GUZ001>004-172200-
MARIANA ISLANDS-
  
CITY           SKY/WX    TMP DP  RH WIND       PRES   REMARKS
GUAM AIRPORT   LGT RAIN  77  72  83 CALM      29.96R                  
ANDERSEN AFB   PTSUNNY   79  70  73 E13       29.96R                  
ROTA AIRPORT   NOT AVBL                                               
TINIAN AP      MOSUNNY   77  70  78 CALM      29.94R                  
SAIPAN AP      MOSUNNY   81  70  69 E7        29.96R                  

$$

PMZ161-172200-
REPUBLIC OF PALAU-
  
CITY           SKY/WX    TMP DP  RH WIND       PRES   REMARKS
KOROR AP       MOCLDY    77  75  94 CALM      29.84R                  
KOROR WSO      NOT AVBL                                               

$$

PMZ171>174-172200-
FEDERATED STATES OF MICRONESIA-
  
CITY           SKY/WX    TMP DP  RH WIND       PRES   REMARKS
YAP AIRPORT    MOCLDY    81  77  89 VRB5      29.87R                  
CHUUK AP       PTSUNNY   84  75  74 NE9       29.84R HX  92           
POHNPEI AP     NOT AVBL                                               
POHNPEI WSO    CLOUDY    81  75  83 E7        29.89R                  
KOSRAE AP      NOT AVBL                                               

$$

PMZ181-172200-
REPUBLIC OF THE MARSHALL ISLANDS-
  
CITY           SKY/WX    TMP DP  RH WIND       PRES   REMARKS
KWAJALEIN AP   MOSUNNY   82  73  74 E17       29.89R                  
MAJURO AP      PTSUNNY   84  77  79 NE18      29.86  HX  94           
MAJURO WSO     CLOUDY    82  75  78 E13       29.85R                  

$$